{"data":{"norad_id":57516,"intl_designator":"2023-113X","name":"STARLINK-30149","alt_names":[],"object_type":"PAYLOAD","status":"ACTIVE","operator":null,"country":"US","launch_date":"2023-08-07","launch_site_code":"AFETR","launch_vehicle":null,"mission":null,"orbit_class":"UNKNOWN","rcs_meters":null,"size_class":null,"mass_kg":null,"dimensions":null,"purposes":["comms"],"wikipedia_slug":null,"has_3d_model":false,"image_url":null,"decayed_at":null,"tle_current":{"epoch":"2026-05-25T04:06:32.245920Z","epoch_age_seconds":63395,"freshness":"FRESH","line1":"1 57516U 23113X   26145.17120655  .00001251  00000+0  54980-4 0  9997","line2":"2 57516  43.0058 304.0100 0001942 270.5541  89.5088 15.27584937155273","mean_motion":15.27584937,"eccentricity":0.0001942,"inclination_deg":43.0058,"raan_deg":304.01,"arg_perigee_deg":270.5541,"mean_anomaly_deg":89.5088,"bstar":5.498e-5,"rev_number":15527,"period_min":94.266444053055,"perigee_km":481.70187345642,"apogee_km":484.36675239436,"semimajor_km":6861.1713129254,"source":"CELESTRAK","updated_at":"2026-05-25T13:38:18.331358Z"}}}